Terug naar catalogus

STARLINK-3788

ActiefCommunicatieVLEO
NORAD 52271·PAYLOAD·🇺🇸 United States

Gelanceerd Apr 21, 2022 vanaf Cape Canaveral Space Force Station

Loading…

Volgende Passages (komende 24 uur)

TLE

VersSource: CelesTrak SupGP

Epoch: Sep 15, 2026, 02:38 UTC

1 52271C 22041L   26258.11020833  .00046572  00000+0  13761-2 0  2588
2 52271  53.1592 332.7857 0001134  79.6823  14.6434 15.34364038    13

Volg STARLINK-3788 in realtime met AllMySat

Download on the App Store